Location: Flensburg
(54.6357°N, 9.5142°E)
Time: 10:05:40
(UTC+01:00)

ISS - Pass Details

Date: 12 January 2018
Orbit: 402 x 407 km, 51.6° (Epoch: 21 January)

Event Time Altitude Azimuth Distance (km) Brightness Sun altitude
Exits shadow 06:23:42 21° 203° (SSW) 988 -2.0 -18.4°
Drops below altitude 10° 06:26:01 10° 158° (SSE) 1,464 -0.6 -18.1°
Sets 06:28:25 0° 142° (SE) 2,322 0.9 -17.8°
